When you browse on this site, cookies collect data to enhance your experience and personalize the content and advertising you see.
Visit our Privacy Policy to learn more. By continuing to use the site, you agree to this use of cookies and data.
  • In Belgien
  • Länderverzeichnis
  • Für 7 Tage
  • Wassertemperatur
  • Satellitenkarten
  • Wetterkarte
  • Widgets
  • user-avatar
    Anmelden

    Stündliche Wetter Maloe Zagore

    Heute, 18 Juni, Dienstag

    Zeit Temperatur Niederschläge Wind Luftdruck Luftfeuchtigkeit
    00:00 +16°C° 0 mm 1 m/S 744 mmHg 81%
    01:00 +15°C° 0 mm 2 m/S 744 mmHg 84%
    02:00 +15°C° 0 mm 2 m/S 744 mmHg 88%
    03:00 +15°C° 0 mm 2 m/S 744 mmHg 85%
    04:00 +16°C° 0 mm 2 m/S 744 mmHg 82%
    05:00 +17°C° 0 mm 3 m/S 744 mmHg 80%
    06:00 +18°C° 0 mm 3 m/S 744 mmHg 72%
    07:00 +20°C° 0 mm 3 m/S 744 mmHg 65%
    08:00 +21°C° 0 mm 3 m/S 744 mmHg 58%
    09:00 +22°C° 0 mm 3 m/S 744 mmHg 54%
    10:00 +25°C° 0 mm 4 m/S 744 mmHg 49%
    11:00 +26°C° 0 mm 4 m/S 744 mmHg 45%
    12:00 +26°C° 0 mm 4 m/S 744 mmHg 43%
    13:00 +26°C° 0 mm 4 m/S 744 mmHg 42%
    14:00 +26°C° 0 mm 4 m/S 744 mmHg 40%
    15:00 +26°C° 0 mm 4 m/S 744 mmHg 42%
    16:00 +25°C° 0 mm 4 m/S 744 mmHg 43%
    17:00 +25°C° 0 mm 4 m/S 744 mmHg 44%
    18:00 +22°C° 0 mm 3 m/S 744 mmHg 55%
    19:00 +20°C° 0 mm 2 m/S 744 mmHg 65%
    20:00 +19°C° 0 mm 2 m/S 744 mmHg 75%
    21:00 +18°C° 0 mm 2 m/S 745 mmHg 76%
    22:00 +17°C° 0 mm 2 m/S 745 mmHg 76%
    23:00 +16°C° 0 mm 2 m/S 746 mmHg 77%

    Morgen, 19 Juni, Mittwoch

    Zeit Temperatur Niederschläge Wind Luftdruck Luftfeuchtigkeit
    00:00 +15°C° 0 mm 2 m/S 746 mmHg 79%
    01:00 +14°C° 0 mm 2 m/S 746 mmHg 80%
    02:00 +14°C° 0 mm 2 m/S 746 mmHg 82%
    03:00 +14°C° 0 mm 2 m/S 746 mmHg 80%
    04:00 +15°C° 0 mm 2 m/S 746 mmHg 77%
    05:00 +16°C° 0 mm 3 m/S 747 mmHg 74%
    06:00 +17°C° 0 mm 3 m/S 747 mmHg 69%
    07:00 +19°C° 0 mm 3 m/S 747 mmHg 64%
    08:00 +21°C° 0 mm 2 m/S 747 mmHg 59%
    09:00 +22°C° 0 mm 3 m/S 747 mmHg 53%
    10:00 +25°C° 0 mm 3 m/S 747 mmHg 47%
    11:00 +27°C° 0 mm 3 m/S 748 mmHg 42%
    12:00 +27°C° 0 mm 3 m/S 747 mmHg 39%
    13:00 +28°C° 0 mm 3 m/S 747 mmHg 37%
    14:00 +28°C° 0 mm 3 m/S 747 mmHg 34%
    15:00 +28°C° 0 mm 3 m/S 747 mmHg 37%
    16:00 +27°C° 0 mm 3 m/S 747 mmHg 39%
    17:00 +27°C° 0 mm 2 m/S 747 mmHg 42%
    18:00 +24°C° 0 mm 2 m/S 747 mmHg 51%
    19:00 +21°C° 0 mm 2 m/S 747 mmHg 61%
    20:00 +19°C° 0 mm 2 m/S 746 mmHg 70%
    21:00 +18°C° 0 mm 2 m/S 747 mmHg 71%
    22:00 +17°C° 0 mm 2 m/S 747 mmHg 72%
    23:00 +16°C° 0 mm 2 m/S 747 mmHg 73%

    übermorgen, 20 Juni, Donnerstag

    Zeit Temperatur Niederschläge Wind Luftdruck Luftfeuchtigkeit
    00:00 +15°C° 0 mm 2 m/S 747 mmHg 73%
    01:00 +15°C° 0 mm 2 m/S 747 mmHg 73%
    02:00 +15°C° 0 mm 2 m/S 747 mmHg 73%
    03:00 +15°C° 0 mm 2 m/S 748 mmHg 74%
    04:00 +16°C° 0 mm 1 m/S 748 mmHg 74%
    05:00 +18°C° 0 mm 1 m/S 748 mmHg 74%
    06:00 +20°C° 0 mm 1 m/S 748 mmHg 67%
    07:00 +22°C° 0 mm 1 m/S 748 mmHg 61%
    08:00 +24°C° 0 mm 1 m/S 748 mmHg 54%
    09:00 +25°C° 0 mm 2 m/S 748 mmHg 49%
    10:00 +26°C° 0 mm 2 m/S 748 mmHg 44%
    11:00 +27°C° 0 mm 2 m/S 748 mmHg 39%
    12:00 +28°C° 0 mm 2 m/S 748 mmHg 38%
    13:00 +28°C° 0 mm 2 m/S 747 mmHg 38%
    14:00 +28°C° 0 mm 2 m/S 747 mmHg 37%
    15:00 +28°C° 0 mm 2 m/S 747 mmHg 42%
    16:00 +28°C° 0 mm 2 m/S 747 mmHg 46%
    17:00 +28°C° 0 mm 2 m/S 747 mmHg 50%
    18:00 +26°C° 0 mm 2 m/S 747 mmHg 57%
    19:00 +24°C° 0 mm 2 m/S 746 mmHg 64%
    20:00 +21°C° 0 mm 2 m/S 746 mmHg 71%
    21:00 +21°C° 0 mm 2 m/S 746 mmHg 72%
    22:00 +20°C° 0 mm 2 m/S 747 mmHg 74%
    23:00 +19°C° 0 mm 2 m/S 747 mmHg 75%

    21 Juni, Freitag

    Zeit Temperatur Niederschläge Wind Luftdruck Luftfeuchtigkeit
    00:00 +19°C° 0 mm 2 m/S 747 mmHg 78%
    01:00 +18°C° 0 mm 2 m/S 747 mmHg 82%
    02:00 +17°C° 0 mm 2 m/S 747 mmHg 85%
    03:00 +18°C° 0 mm 2 m/S 747 mmHg 85%
    04:00 +18°C° 0 mm 2 m/S 747 mmHg 84%
    05:00 +19°C° 0 mm 2 m/S 747 mmHg 83%
    06:00 +21°C° 0 mm 2 m/S 747 mmHg 73%
    07:00 +24°C° 0 mm 3 m/S 747 mmHg 63%
    08:00 +26°C° 0 mm 3 m/S 747 mmHg 53%
    09:00 +26°C° 0.3 mm 3 m/S 747 mmHg 58%
    10:00 +26°C° 0.3 mm 4 m/S 747 mmHg 62%
    11:00 +26°C° 0.3 mm 4 m/S 747 mmHg 67%
    12:00 +27°C° 0.4 mm 4 m/S 746 mmHg 63%
    13:00 +28°C° 0.4 mm 4 m/S 746 mmHg 60%
    14:00 +28°C° 0.4 mm 4 m/S 746 mmHg 56%
    15:00 +27°C° 0.7 mm 3 m/S 746 mmHg 65%
    16:00 +26°C° 0.7 mm 3 m/S 745 mmHg 74%
    17:00 +25°C° 0.7 mm 2 m/S 745 mmHg 83%
    18:00 +24°C° 0.6 mm 2 m/S 745 mmHg 86%
    19:00 +23°C° 0.6 mm 2 m/S 745 mmHg 89%
    20:00 +21°C° 0.6 mm 2 m/S 745 mmHg 92%
    21:00 +20°C° 0.1 mm 2 m/S 745 mmHg 94%
    22:00 +20°C° 0.1 mm 2 m/S 745 mmHg 95%
    23:00 +19°C° 0.1 mm 2 m/S 745 mmHg 96%

    22 Juni, Samstag

    Zeit Temperatur Niederschläge Wind Luftdruck Luftfeuchtigkeit
    00:00 +19°C° 0 mm 2 m/S 745 mmHg 97%
    01:00 +19°C° 0 mm 2 m/S 745 mmHg 97%
    02:00 +18°C° 0 mm 2 m/S 745 mmHg 98%
    03:00 +19°C° 0.4 mm 2 m/S 745 mmHg 98%
    04:00 +19°C° 0.4 mm 2 m/S 745 mmHg 97%
    05:00 +19°C° 0.4 mm 3 m/S 745 mmHg 97%
    06:00 +19°C° 0.6 mm 3 m/S 744 mmHg 97%
    07:00 +20°C° 0.6 mm 3 m/S 744 mmHg 96%
    08:00 +20°C° 0.6 mm 3 m/S 744 mmHg 96%
    09:00 +22°C° 0.3 mm 3 m/S 744 mmHg 89%
    10:00 +25°C° 0.3 mm 3 m/S 744 mmHg 82%
    11:00 +27°C° 0.3 mm 3 m/S 744 mmHg 74%
    12:00 +26°C° 1.6 mm 3 m/S 744 mmHg 79%
    13:00 +26°C° 1.6 mm 3 m/S 743 mmHg 84%
    14:00 +26°C° 1.6 mm 3 m/S 743 mmHg 88%
    15:00 +25°C° 1.4 mm 3 m/S 743 mmHg 90%
    16:00 +24°C° 1.4 mm 3 m/S 743 mmHg 92%
    17:00 +22°C° 1.4 mm 3 m/S 743 mmHg 94%
    18:00 +21°C° 0.1 mm 3 m/S 744 mmHg 95%
    19:00 +21°C° 0.1 mm 2 m/S 744 mmHg 96%
    20:00 +21°C° 0.1 mm 2 m/S 744 mmHg 97%
    21:00 +20°C° 0 mm 2 m/S 744 mmHg 97%
    22:00 +20°C° 0 mm 2 m/S 745 mmHg 98%
    23:00 +19°C° 0 mm 2 m/S 745 mmHg 98%

    23 Juni, Sonntag

    Zeit Temperatur Niederschläge Wind Luftdruck Luftfeuchtigkeit
    00:00 +18°C° 0 mm 2 m/S 745 mmHg 98%
    01:00 +17°C° 0 mm 2 m/S 746 mmHg 98%
    02:00 +16°C° 0 mm 2 m/S 746 mmHg 97%
    03:00 +16°C° 0 mm 2 m/S 746 mmHg 97%
    04:00 +16°C° 0 mm 2 m/S 746 mmHg 96%
    05:00 +16°C° 0 mm 2 m/S 747 mmHg 95%
    06:00 +19°C° 0 mm 1 m/S 747 mmHg 86%
    07:00 +21°C° 0 mm 1 m/S 747 mmHg 78%
    08:00 +22°C° 0 mm 1 m/S 747 mmHg 69%
    09:00 +24°C° 0 mm 1 m/S 747 mmHg 64%
    10:00 +26°C° 0 mm 1 m/S 747 mmHg 59%
    11:00 +27°C° 0 mm 1 m/S 747 mmHg 54%
    12:00 +28°C° 0 mm 1 m/S 747 mmHg 52%
    13:00 +27°C° 0 mm 0 m/S 746 mmHg 50%
    14:00 +28°C° 0 mm 0 m/S 746 mmHg 49%
    15:00 +27°C° 0.1 mm 0 m/S 746 mmHg 56%
    16:00 +26°C° 0.1 mm 0 m/S 745 mmHg 63%
    17:00 +27°C° 0.1 mm 1 m/S 745 mmHg 70%
    18:00 +25°C° 0.3 mm 1 m/S 745 mmHg 77%
    19:00 +24°C° 0.3 mm 1 m/S 745 mmHg 84%
    20:00 +22°C° 0.3 mm 1 m/S 745 mmHg 92%
    21:00 +21°C° 0.3 mm 1 m/S 745 mmHg 93%
    22:00 +19°C° 0.3 mm 2 m/S 745 mmHg 94%
    23:00 +17°C° 0.3 mm 2 m/S 745 mmHg 95%
    Mehr zeigen